#timestamp,LO_Frequency,Hit 
1505275215.1,286047010.5,N
1505275235.9,286047011.4,N
1505275255.7,286047013.5,N
1505275275.5,286047012.5,N
1505275295.4,286047014.2,N
1505275315.2,286047016.8,N
1505275335.0,286047012.6,N
1505275335.9,286047012.6,N
1505275355.8,286047013.1,N
1505275375.6,286047015.4,N
1505275395.4,286047017.9,N
1505275415.3,286047021.8,P
1505275435.1,286047016.8,N
1505275455.8,286047016.7,N
1505275475.7,286047016.3,N
1505275495.5,286047015.3,N
1505275515.3,286047014.2,N
1505275535.2,286047018.4,P
1505275555.9,286047000.4,N
1505275575.7,286046997.6,N
1505275595.6,286046997.0,N
1505275615.4,286046997.8,N
1505275635.2,286046992.3,N
1505275655.0,286046992.6,N
1505275656.0,286046992.6,N
1505275675.8,286046994.3,N
1505275695.6,286046994.7,N
1505275715.4,286046987.9,N
1505275735.3,286046988.8,N
1505275755.1,286046986.5,N
1505275775.8,286046987.7,N
1505275795.7,286046985.5,N
1505275815.5,286046984.5,N
1505275835.3,286046987.1,N
1505275855.2,286046990.5,N
1505275875.9,286046991.2,N
1505275895.7,286046982.1,N
1505275915.6,286046982.5,N
1505275935.4,286046981.1,N
1505275955.2,286046982.5,N
1505275975.0,286046985.4,N
1505275975.9,286046985.4,N
1505275995.8,286046982.2,N
1505276015.6,286046984.7,N
1505276035.4,286046982.9,N
1505276055.3,286046985.3,N
1505276075.1,286046981.1,N
1505276095.8,286046980.3,N
1505276115.7,286046981.6,P
1505276135.5,286046994.0,N
1505276155.3,286046994.4,N
1505276175.2,286046990.3,N
1505276195.9,286046988.6,N
1505276215.7,286046985.7,P
1505276235.6,286046995.2,N
1505276255.4,286047001.0,N
1505276275.2,286047003.7,N
1505276295.1,286047000.1,N
1505276296.0,286047000.1,N
1505276315.8,286046999.4,N
1505276335.6,286046996.7,N
1505276355.5,286047000.7,N
1505276375.3,286046998.5,N
1505276395.1,286046997.3,N
1505276415.9,286046999.6,N
1505276435.7,286046996.5,N
1505276455.5,286046996.1,N
1505276475.4,286047002.5,N
1505276495.2,286046998.2,N
1505276515.0,286046999.6,N
1505276515.9,286046999.6,N
1505276535.7,286046995.6,N
1505276555.6,286046997.9,N
1505276575.4,286046998.9,N
1505276595.2,286047002.6,N
1505276615.1,286047001.5,N
1505276616.0,286047001.5,N
1505276635.8,286047000.3,N
1505276655.6,286047000.8,N
1505276675.5,286047002.6,N
1505276695.3,286047001.7,N
1505276715.1,286047003.0,N
1505276735.9,286047003.4,N
1505276755.7,286047003.1,N
1505276775.5,286047002.9,N
1505276795.4,286047004.2,N
1505276815.2,286047001.4,N
1505276835.0,286047002.9,N
1505276835.9,286047002.9,N
1505276855.7,286047003.0,N
1505276875.6,286047006.9,N
1505276895.4,286047004.9,N
1505276915.2,286047007.4,N
1505276935.1,286047005.7,N
1505276936.0,286047005.7,N
1505276955.8,286047003.2,N
1505276975.6,286047006.2,N
1505276995.5,286047003.3,N
1505277015.3,286047001.4,N
1505277035.1,286047007.3,N
1505277055.9,286047002.3,N
1505277075.7,286047002.4,N
1505277095.5,286047001.4,N
1505277115.4,286046999.3,N
1505277135.2,286046997.4,N
1505277155.0,286046993.8,N
1505277155.9,286046993.8,N
1505277175.8,286046995.3,N
1505277195.6,286047000.3,N
1505277215.4,286046999.6,N
1505277235.2,286046998.8,N
1505277255.1,286047001.2,N
1505277256.0,286047001.2,N
1505277275.8,286047000.4,N
1505277295.6,286047002.3,N
1505277315.5,286047001.5,N
1505277335.3,286047003.7,N
1505277355.1,286047000.0,N
1505277375.9,286046999.7,N
1505277395.7,286047003.0,N
1505277415.5,286047001.5,N
1505277435.4,286047001.8,N
1505277455.2,286047004.0,N
1505277475.0,286047002.6,N
1505277475.9,286047002.6,N
1505277495.8,286047004.4,N
1505277515.6,286047000.2,N
1505277535.4,286046998.6,N
1505277555.3,286047001.4,N
1505277575.1,286047007.2,N
1505277576.0,286047007.2,N
1505277595.8,286047006.7,N
1505277615.7,286047009.1,N
1505277635.5,286047008.7,N
1505277655.3,286047005.4,N
1505277675.1,286047007.3,N
1505277695.9,286047006.0,N
1505277715.7,286047005.5,N
1505277735.5,286047007.3,N
1505277755.4,286047008.9,N
1505277775.2,286047005.9,N
1505277795.0,286047003.4,N
1505277795.9,286047003.4,N
1505277815.8,286047006.0,N
1505277835.6,286047005.5,N
1505277855.4,286047006.2,N
1505277875.3,286047004.5,N
1505277895.1,286047006.4,N
1505277896.0,286047006.4,N
1505277915.8,286047007.1,N
1505277935.7,286047006.2,N
1505277955.5,286047006.1,N
1505277975.3,286047008.4,P
1505277995.2,286047002.2,N
1505278015.9,286047003.0,N
1505278035.7,286047003.6,N
1505278055.6,286047002.4,N
1505278075.4,286047003.2,N
1505278095.2,286047004.6,N
1505278115.0,286047004.1,N
1505278116.0,286047004.1,N
1505278135.8,286047004.3,N
1505278155.6,286047002.3,N
1505278175.4,286047001.0,N
1505278195.3,286046998.1,N
1505278215.1,286046998.4,N
1505278235.8,286047001.5,N
1505278255.7,286047000.9,N
1505278275.5,286047002.2,N
1505278295.3,286047005.0,N
1505278315.2,286047004.5,N
1505278335.9,286047004.9,N
1505278355.7,286047004.5,N
1505278375.6,286047004.6,N
1505278395.4,286047005.8,N
1505278415.2,286047005.4,N
1505278435.0,286047004.3,N
1505278435.9,286047004.3,N
1505278455.8,286046999.8,N
1505278475.6,286047003.6,N
1505278495.4,286047004.3,N
1505278515.3,286046999.8,N
1505278535.1,286047003.1,N
1505278555.8,286047003.1,N
1505278575.7,286047000.6,N
1505278595.5,286046999.9,N
1505278615.3,286047003.7,N
1505278635.2,286047001.3,N
1505278655.9,286047001.4,N
1505278675.7,286047001.4,N
1505278695.6,286047003.6,N
1505278715.4,286047005.7,N
1505278735.2,286047003.8,N
1505278755.0,286047000.4,N
1505278755.9,286047000.4,N
1505278775.8,286047002.8,N
1505278795.6,286047002.7,N
